Time,TemperatureF,DewpointF,PressureIn,WindDirection,WindDirectionDegrees,WindSpeedMPH,WindSpeedGustMPH,Humidity,HourlyPrecipIn,Conditions,Clouds,dailyrainin,SoftwareType,DateUTC
2015-01-28 00:12:00,42.0,31.0,29.96,SSE,165,0.0,-999.0,66,-99.99,,,-99.99,,2015-01-28 06:12:00,
2015-01-28 00:22:00,43.0,32.0,29.96,SSE,165,0.0,-999.0,64,-99.99,,,-99.99,,2015-01-28 06:22:00,
2015-01-28 00:42:00,44.0,31.0,29.96,SSE,165,0.0,-999.0,61,-99.99,,,-99.99,,2015-01-28 06:42:00,
2015-01-28 00:52:00,44.0,32.0,29.96,SSE,165,0.0,-999.0,62,-99.99,,,-99.99,,2015-01-28 06:52:00,
2015-01-28 01:12:00,44.0,32.0,29.95,SSE,165,0.0,-999.0,63,-99.99,,,-99.99,,2015-01-28 07:12:00,
2015-01-28 01:22:00,43.0,31.0,29.95,SSE,165,0.0,-999.0,63,-99.99,,,-99.99,,2015-01-28 07:22:00,
2015-01-28 01:42:00,44.0,32.0,29.96,SSE,165,1.0,-999.0,63,-99.99,,,-99.99,,2015-01-28 07:42:00,
2015-01-28 01:52:00,44.0,32.0,29.95,SSE,163,1.0,-999.0,62,-99.99,,,-99.99,,2015-01-28 07:52:00,
2015-01-28 02:12:00,44.0,32.0,29.96,SSE,161,1.0,-999.0,62,-99.99,,,-99.99,,2015-01-28 08:12:00,
2015-01-28 02:22:00,44.0,32.0,29.95,SSE,161,1.0,-999.0,62,-99.99,,,-99.99,,2015-01-28 08:22:00,
2015-01-28 02:52:00,43.0,32.0,29.95,SSE,161,0.0,-999.0,64,-99.99,,,-99.99,,2015-01-28 08:52:00,
2015-01-28 03:12:00,43.0,32.0,29.95,SSE,161,0.0,-999.0,64,-99.99,,,-99.99,,2015-01-28 09:12:00,
2015-01-28 03:22:00,43.0,32.0,29.95,SSE,161,0.0,-999.0,65,-99.99,,,-99.99,,2015-01-28 09:22:00,
2015-01-28 03:44:00,43.0,32.0,29.95,SSE,161,0.0,-999.0,65,-99.99,,,-99.99,,2015-01-28 09:44:00,
2015-01-28 03:53:00,43.0,32.0,29.94,SSE,161,0.0,-999.0,66,-99.99,,,-99.99,,2015-01-28 09:53:00,
2015-01-28 04:13:00,42.0,32.0,29.94,SSE,161,0.0,-999.0,67,-99.99,,,-99.99,,2015-01-28 10:13:00,
2015-01-28 04:23:00,42.0,32.0,29.94,SSE,161,0.0,-999.0,67,-99.99,,,-99.99,,2015-01-28 10:23:00,
2015-01-28 04:53:00,42.0,33.0,29.93,SSE,161,0.0,-999.0,69,-99.99,,,-99.99,,2015-01-28 10:53:00,
2015-01-28 05:13:00,41.0,32.0,29.93,SSE,161,0.0,-999.0,70,-99.99,,,-99.99,,2015-01-28 11:13:00,
2015-01-28 05:22:00,40.0,31.0,29.93,SSE,161,0.0,-999.0,71,-99.99,,,-99.99,,2015-01-28 11:22:00,
2015-01-28 05:42:00,40.0,32.0,29.93,SSE,161,0.0,-999.0,72,-99.99,,,-99.99,,2015-01-28 11:42:00,
2015-01-28 05:52:00,40.0,32.0,29.93,SSE,161,0.0,-999.0,72,-99.99,,,-99.99,,2015-01-28 11:52:00,
2015-01-28 06:12:00,40.0,32.0,29.93,SSE,161,0.0,-999.0,74,-99.99,,,-99.99,,2015-01-28 12:12:00,
2015-01-28 06:22:00,40.0,32.0,29.93,SSE,161,0.0,-999.0,74,-99.99,,,-99.99,,2015-01-28 12:22:00,
2015-01-28 06:42:00,40.0,33.0,29.93,SSE,161,0.0,-999.0,75,-99.99,,,-99.99,,2015-01-28 12:42:00,
2015-01-28 06:52:00,40.0,32.0,29.94,SSE,161,0.0,-999.0,74,-99.99,,,-99.99,,2015-01-28 12:52:00,
2015-01-28 07:22:00,39.0,33.0,29.95,SSE,161,1.0,-999.0,78,-99.99,,,-99.99,,2015-01-28 13:22:00,
2015-01-28 07:42:00,40.0,33.0,29.95,SSE,161,1.0,-999.0,76,-99.99,,,-99.99,,2015-01-28 13:42:00,
2015-01-28 07:52:00,41.0,34.0,29.95,SSE,161,1.0,-999.0,75,-99.99,,,-99.99,,2015-01-28 13:52:00,
2015-01-28 08:12:00,41.0,34.0,29.95,SSE,161,1.0,-999.0,75,-99.99,,,-99.99,,2015-01-28 14:12:00,
2015-01-28 08:22:00,41.0,34.0,29.96,SSE,163,1.0,-999.0,76,-99.99,,,-99.99,,2015-01-28 14:22:00,
2015-01-28 08:42:00,44.0,36.0,29.95,SSE,162,1.0,-999.0,73,-99.99,,,-99.99,,2015-01-28 14:42:00,
2015-01-28 08:52:00,46.0,37.0,29.95,SSE,159,2.0,-999.0,70,-99.99,,,-99.99,,2015-01-28 14:52:00,
2015-01-28 09:22:00,50.0,39.0,29.95,South,180,3.0,-999.0,65,-99.99,,,-99.99,,2015-01-28 15:22:00,
2015-01-28 09:54:00,54.0,40.0,29.95,South,171,5.0,-999.0,59,-99.99,,,-99.99,,2015-01-28 15:54:00,
2015-01-28 10:14:00,55.0,41.0,29.95,SSW,193,6.0,-999.0,58,-99.99,,,-99.99,,2015-01-28 16:14:00,
2015-01-28 10:23:00,57.0,41.0,29.95,South,191,5.0,-999.0,56,-99.99,,,-99.99,,2015-01-28 16:23:00,
2015-01-28 10:44:00,60.0,42.0,29.95,SSW,192,9.0,-999.0,51,-99.99,,,-99.99,,2015-01-28 16:44:00,
2015-01-28 10:53:00,61.0,42.0,29.95,SW,231,9.0,-999.0,49,-99.99,,,-99.99,,2015-01-28 16:53:00,
2015-01-28 11:13:00,63.0,42.0,29.95,SSW,202,8.0,-999.0,47,-99.99,,,-99.99,,2015-01-28 17:13:00,
2015-01-28 11:22:00,64.0,42.0,29.94,SSW,196,6.0,-999.0,45,-99.99,,,-99.99,,2015-01-28 17:22:00,
2015-01-28 11:43:00,65.0,43.0,29.93,SSW,208,10.0,-999.0,44,-99.99,,,-99.99,,2015-01-28 17:43:00,
2015-01-28 11:53:00,66.0,43.0,29.92,South,190,9.0,-999.0,43,-99.99,,,-99.99,,2015-01-28 17:53:00,
2015-01-28 12:22:00,67.0,43.0,29.90,South,176,10.0,-999.0,42,-99.99,,,-99.99,,2015-01-28 18:22:00,
2015-01-28 12:42:00,68.0,43.0,29.89,South,182,12.0,-999.0,40,-99.99,,,-99.99,,2015-01-28 18:42:00,
2015-01-28 12:53:00,68.0,42.0,29.87,SSW,199,10.0,-999.0,39,-99.99,,,-99.99,,2015-01-28 18:53:00,
2015-01-28 13:23:00,69.0,42.0,29.85,SSW,199,11.0,-999.0,38,-99.99,,,-99.99,,2015-01-28 19:23:00,
2015-01-28 13:42:00,70.0,43.0,29.84,SSE,161,9.0,-999.0,38,-99.99,,,-99.99,,2015-01-28 19:42:00,
2015-01-28 13:52:00,71.0,43.0,29.83,SSW,200,8.0,-999.0,37,-99.99,,,-99.99,,2015-01-28 19:52:00,
2015-01-28 14:22:00,72.0,44.0,29.80,SSW,206,11.0,-999.0,36,-99.99,,,-99.99,,2015-01-28 20:22:00,
2015-01-28 14:52:00,71.0,43.0,29.79,SSE,156,9.0,-999.0,37,-99.99,,,-99.99,,2015-01-28 20:52:00,
2015-01-28 15:12:00,71.0,43.0,29.78,SSW,210,11.0,-999.0,37,-99.99,,,-99.99,,2015-01-28 21:12:00,
2015-01-28 15:22:00,70.0,44.0,29.78,SSW,198,10.0,-999.0,39,-99.99,,,-99.99,,2015-01-28 21:22:00,
2015-01-28 15:44:00,70.0,44.0,29.77,SW,219,12.0,-999.0,39,-99.99,,,-99.99,,2015-01-28 21:44:00,
2015-01-28 15:53:00,70.0,44.0,29.77,SW,236,11.0,-999.0,39,-99.99,,,-99.99,,2015-01-28 21:53:00,
2015-01-28 16:23:00,69.0,44.0,29.76,SSW,198,12.0,-999.0,40,-99.99,,,-99.99,,2015-01-28 22:23:00,
2015-01-28 16:43:00,68.0,43.0,29.76,SSW,212,11.0,-999.0,41,-99.99,,,-99.99,,2015-01-28 22:43:00,
2015-01-28 16:53:00,68.0,45.0,29.77,WSW,254,8.0,-999.0,43,-99.99,,,-99.99,,2015-01-28 22:53:00,
2015-01-28 17:22:00,66.0,44.0,29.76,SSW,192,9.0,-999.0,45,-99.99,,,-99.99,,2015-01-28 23:22:00,
2015-01-28 17:52:00,65.0,44.0,29.75,SSW,200,7.0,-999.0,47,-99.99,,,-99.99,,2015-01-28 23:52:00,
2015-01-28 18:13:00,64.0,44.0,29.75,SW,216,7.0,-999.0,49,-99.99,,,-99.99,,2015-01-29 00:13:00,
2015-01-28 18:22:00,64.0,44.0,29.76,South,188,7.0,-999.0,49,-99.99,,,-99.99,,2015-01-29 00:22:00,
2015-01-28 18:43:00,63.0,44.0,29.76,SSW,208,8.0,-999.0,50,-99.99,,,-99.99,,2015-01-29 00:43:00,
2015-01-28 18:52:00,63.0,45.0,29.76,SW,217,9.0,-999.0,51,-99.99,,,-99.99,,2015-01-29 00:52:00,
2015-01-28 19:12:00,63.0,45.0,29.76,SSW,202,9.0,-999.0,51,-99.99,,,-99.99,,2015-01-29 01:12:00,
2015-01-28 19:22:00,62.0,44.0,29.75,SSW,207,7.0,-999.0,52,-99.99,,,-99.99,,2015-01-29 01:22:00,
2015-01-28 19:42:00,62.0,45.0,29.76,SSW,202,7.0,-999.0,53,-99.99,,,-99.99,,2015-01-29 01:42:00,
2015-01-28 19:52:00,61.0,44.0,29.77,SSW,205,7.0,-999.0,54,-99.99,,,-99.99,,2015-01-29 01:52:00,
2015-01-28 20:12:00,61.0,45.0,29.77,SSW,205,6.0,-999.0,55,-99.99,,,-99.99,,2015-01-29 02:12:00,
2015-01-28 20:22:00,60.0,45.0,29.77,SSW,193,7.0,-999.0,57,-99.99,,,-99.99,,2015-01-29 02:22:00,
2015-01-28 21:22:00,59.0,45.0,29.77,SSW,201,7.0,-999.0,59,-99.99,,,-99.99,,2015-01-29 03:22:00,
2015-01-28 21:44:00,59.0,45.0,29.78,SSW,197,6.0,-999.0,60,-99.99,,,-99.99,,2015-01-29 03:44:00,
2015-01-28 21:54:00,59.0,45.0,29.78,SW,217,7.0,-999.0,60,-99.99,,,-99.99,,2015-01-29 03:54:00,
2015-01-28 22:23:00,59.0,46.0,29.78,SW,229,4.0,-999.0,61,-99.99,,,-99.99,,2015-01-29 04:23:00,